Probability
0 0 0 0 0 0 0 0 0 0 0 0 0 0 0 0 0 0 0 0 1 2 2 2 3 3 2 2 1 0 0 0 0 0 0 0 0 0 0 0 0 0 0 0
0 0 0 0 0 0 0 0 0 0 0 0 0 0 0 0 0 0 0 0 0 1 1 1 2 2 1 1 0 0 0 0 0 0 0 0 0 0 0 0 0 0 0 0
0 0 0 0 0 0 0 0 0 0 0 0 0 0 0 0 0 0 0 0 0 0 0 0 1 1 0 0 0 0 0 0 0 0 0 0 0 0 0 0 0 0 0 0
0 0 0 0 0 0 0 0 0 0 0 0 0 0 0 0 0 0 0 0 0 0 0 0 0 0 0 0 0 0 0 0 0 0 0 0 0 0 0 0 0 0 0 0
0 0 0 0 0 0 0 0 0 0 0 0 0 0 0 0 0 0 0 0 0 0 0 0 0 0 0 0 0 0 0 0 0 0 0 0 0 0 0 0 0 0 0 0
0 0 0 0 0 0 0 0 0 0 0 0 0 0 0 0 0 0 0 0 0 0 0 0 0 0 0 0 0 0 0 0 0 0 0 0 0 0 0 0 0 0 0 0
0 0 0 0 0 0 0 0 0 0 0 0 0 0 0 0 0 0 0 0 0 0 0 0 0 0 0 0 0 0 0 0 0 0 0 0 0 0 0 0 0 0 0 0
0 0 0 0 0 0 0 0 0 0 0 0 0 0 0 0 0 0 0 0 0 0 0 0 0 0 0 0 0 0 0 0 0 0 0 0 0 0 0 0 0 0 0 0
0 0 0 0 0 0 0 0 0 0 0 0 0 0 0 0 0 0 0 0 0 0 0 0 0 0 0 0 0 0 0 0 0 0 0 0 0 0 0 0 0 0 0 0
0 0 0 0 0 0 0 0 0 0 0 0 0 0 0 0 0 0 0 0 0 0 0 0 0 0 0 0 0 0 0 0 0 0 0 0 0 0 0 0 0 0 0 0
0 0 0 0 0 0 0 0 0 0 0 0 0 0 0 0 0 0 0 0 0 0 0 0 0 0 0 0 0 0 0 0 0 0 0 0 0 0 0 0 0 0 0 0
0 0 0 0 0 0 0 0 0 0 0 0 0 0 0 0 0 0 0 0 0 0 0 0 0 0 0 0 0 0 0 0 0 0 0 0 0 0 0 0 0 0 0 0
0 0 0 0 0 0 0 0 0 0 0 0 0 0 0 0 0 0 0 0 0 0 0 0 0 0 0 0 0 0 0 0 0 0 0 0 0 0 0 0 0 0 0 0
0 0 0 0 0 0 0 0 0 0 0 0 0 0 0 0 0 0 0 0 0 0 0 0 0 0 0 0 0 0 0 0 0 0 0 0 0 0 0 0 0 0 0 0
0 0 0 0 0 0 0 0 0 0 0 0 0 0 0 0 0 0 0 0 0 0 0 0 0 0 0 0 0 0 0 0 0 0 0 0 0 0 0 0 0 0 0 0
0 0 0 0 0 0 0 0 0 0 0 0 0 0 0 0 0 0 0 0 0 0 0 0 0 0 0 0 0 0 0 0 0 0 0 0 0 0 0 0 0 0 0 0
0 0 0 0 0 0 0 0 0 0 0 0 0 0 0 0 0 0 0 0 0 0 0 0 0 0 0 0 0 0 0 0 0 0 0 0 0 0 0 0 0 0 0 0
0 0 0 0 0 0 0 0 0 0 0 0 0 0 0 0 0 0 0 0 0 0 0 0 0 0 0 0 0 0 0 0 0 0 0 0 0 0 0 0 0 0 0 0
0 0 0 0 0 0 0 0 0 0 0 0 0 0 0 0 0 0 0 0 0 0 0 0 0 0 0 0 0 0 0 0 0 0 0 0 0 0 0 0 0 0 0 0
0 0 0 0 0 0 0 0 0 0 0 0 0 0 0 0 0 0 0 0 0 0 0 0 0 0 0 0 0 0 0 0 0 0 0 0 0 0 0 0 0 0 0 0
0 0 0 0 0 0 0 0 0 0 0 0 0 0 0 0 0 0 0 0 0 0 0 0 0 0 0 0 0 0 0 0 0 0 0 0 0 0 0 0 0 0 0 0
0 0 0 0 0 0 0 0 0 0 0 0 0 0 0 0 0 0 0 0 0 0 0 0 0 0 0 0 0 0 0 0 0 0 0 0 0 0 0 0 0 0 0 0
0 0 0 0 0 0 0 0 0 0 0 0 0 0 0 0 0 0 0 0 0 0 0 0 0 0 0 0 0 0 0 0 0 0 0 0 0 0 0 0 0 0 0 0
0 0 0 0 0 0 0 0 0 0 0 0 0 0 0 0 0 0 0 0 0 0 0 0 0 0 0 0 0 0 0 0 0 0 0 0 0 0 0 0 0 0 0 0
0 0 0 0 0 0 0 0 0 0 0 0 0 0 0 0 0 0 0 0 0 0 0 0 0 0 0 0 0 0 0 0 0 0 0 0 0 0 0 0 0 0 0 0
0 0 0 0 0 0 0 0 0 0 0 0 0 0 0 0 0 0 0 0 0 0 0 0 0 0 0 0 0 0 0 0 0 0 0 0 0 0 0 0 0 0 0 0
0 0 0 0 0 0 0 0 0 0 0 0 0 0 0 0 0 0 0 0 0 0 0 0 0 0 0 0 0 0 0 0 0 0 0 0 0 0 0 0 0 0 0 0
Wind_Speed
5 5 5 7 8 9 10 9 9 9 10 9 7 6 5 5 4 3 3 3 3 3 3 3 2 2 2 2 1 0 1 1 0 0 0 1 1 0 1 1 1 2 2 2
4 4 5 8 10 11 11 11 12 11 13 7 6 5 6 6 5 4 4 4 4 4 3 3 2 2 2 2 1 1 1 0 0 0 0 0 0 0 1 1 1 1 2 2
3 2 4 8 9 11 10 9 9 12 9 3 5 6 6 6 5 5 5 5 5 4 4 3 2 2 2 2 1 1 0 0 0 0 1 1 1 1 1 1 1 1 1 1
2 2 7 2 1 5 9 10 9 9 8 7 7 6 7 7 7 6 6 5 5 4 4 3 2 1 1 1 1 0 0 0 0 0 0 1 1 1 1 1 1 1 1 1
3 4 7 4 3 4 6 8 8 10 10 8 5 5 6 6 6 7 6 5 4 3 3 2 1 1 1 0 0 0 0 0 1 0 0 0 1 1 1 1 1 1 1 1
4 5 6 1 2 2 3 6 3 6 7 5 3 5 4 2 4 5 4 3 2 2 2 1 1 1 1 1 1 1 0 1 1 1 0 1 1 0 0 0 1 1 0 0
6 6 8 2 3 5 6 3 1 4 5 5 6 6 4 3 3 3 3 2 2 2 2 2 1 1 1 1 1 1 0 0 0 0 0 0 0 0 0 0 1 1 1 1
6 7 8 5 7 7 4 3 2 3 4 6 7 6 5 4 4 3 2 2 2 2 2 1 2 2 2 1 1 0 0 0 0 0 0 0 1 1 1 1 1 1 1 0
8 7 2 5 5 4 3 4 4 4 5 6 6 6 5 5 4 3 3 2 2 2 2 2 2 2 2 2 1 1 1 1 0 0 0 0 1 1 1 1 1 1 1 0
7 9 7 7 7 7 6 7 6 6 6 6 7 6 5 5 4 4 3 3 2 3 2 2 2 2 2 2 2 2 2 1 1 1 0 0 0 1 1 1 1 1 1 1
8 8 6 8 9 9 8 7 7 6 6 6 6 6 5 4 4 3 3 2 2 3 3 3 2 2 2 2 2 2 2 1 1 1 1 0 0 0 1 1 1 1 1 1
8 6 6 5 5 6 7 7 7 7 7 6 6 6 5 4 4 3 3 3 3 3 3 3 2 2 2 2 2 2 2 1 1 1 1 1 1 0 1 0 0 1 2 2
8 5 5 7 7 6 7 7 7 7 7 6 5 5 5 4 3 3 3 3 3 4 4 3 2 2 2 2 2 3 2 2 1 1 1 1 1 1 1 0 0 1 1 2
8 6 7 8 8 7 7 7 6 5 5 5 5 4 4 4 3 3 4 4 3 3 3 3 3 2 2 2 3 3 2 2 2 2 1 1 1 1 1 1 1 1 1 2
8 8 8 7 7 6 5 4 4 5 5 5 4 4 4 5 4 4 4 3 3 3 3 3 3 3 2 2 3 3 3 2 2 2 1 1 1 1 1 1 1 1 1 1
5 6 7 8 8 7 6 5 6 6 5 5 4 4 4 4 4 4 3 3 3 4 3 3 3 3 2 3 3 3 2 3 2 2 2 2 2 2 2 1 1 1 1 1
5 6 7 7 8 8 7 7 6 6 5 5 5 4 3 3 3 3 3 3 3 4 3 3 3 3 2 3 3 2 2 3 4 2 2 2 2 2 2 2 2 2 1 1
8 8 7 7 6 6 6 5 5 5 5 5 4 4 4 4 4 4 3 3 3 3 3 3 3 3 3 3 3 2 2 3 3 3 2 2 2 2 2 2 2 2 2 2
6 6 6 6 6 5 5 5 5 5 4 4 4 5 5 5 4 4 3 3 3 4 3 3 4 3 3 4 4 3 3 3 3 3 3 3 3 2 2 2 2 2 2 2
4 4 5 5 4 5 5 5 4 4 4 4 4 4 4 4 4 3 3 4 4 3 3 3 3 4 4 4 4 3 3 4 4 3 3 3 3 3 2 2 2 2 2 2
4 4 4 4 4 4 4 4 4 4 4 4 5 5 5 4 4 4 4 4 3 4 4 5 4 3 3 4 5 3 3 4 4 4 3 3 3 3 2 2 2 2 2 2
4 4 4 4 4 4 3 3 4 4 4 4 4 4 4 4 4 4 5 5 3 4 3 3 3 4 5 5 4 4 4 4 3 3 3 3 3 3 3 3 3 2 3 3
4 4 4 4 4 4 3 3 4 4 5 5 5 5 5 5 4 4 4 3 3 5 4 3 5 6 6 4 3 4 4 4 3 3 3 3 3 3 3 3 3 3 3 3
4 4 4 3 3 3 4 4 4 4 4 5 5 5 5 4 4 4 4 4 5 5 4 4 6 6 5 3 3 3 3 3 3 3 3 3 3 3 3 3 3 3 3 4
4 4 4 4 4 5 5 4 3 4 4 4 4 5 4 4 4 3 3 4 5 5 3 4 6 5 4 3 3 3 3 3 3 3 3 3 3 3 3 3 3 3 3 4
5 4 4 5 4 4 3 3 4 3 3 3 3 3 3 3 3 3 3 4 5 5 3 3 3 4 3 3 3 3 3 3 3 3 3 3 4 4 3 4 5 4 4 4
4 4 3 4 4 4 4 4 4 4 4 4 4 3 3 3 3 3 4 3 3 3 3 3 3 3 3 3 3 3 3 3 3 3 3 3 3 4 4 4 4 4 4 4
Wind_Direction
265 267 248 244 245 232 226 235 243 251 256 268 282 282 279 280 277 271 272 275 276 281 288 293 303 317 323 325 320 289 254 245 256 291 162 173 172 178 188 191 210 199 185 191
259 247 245 251 245 236 236 239 245 260 266 271 283 276 273 273 269 266 269 276 277 277 279 280 286 296 306 314 317 297 250 244 29 55 107 138 137 133 158 172 194 200 187 192
252 272 264 250 233 220 224 230 233 244 256 263 266 262 264 265 262 262 269 274 272 268 268 273 274 267 274 293 310 311 299 56 109 148 135 147 146 154 170 182 180 198 201 201
272 249 239 246 86 225 233 243 237 254 271 271 271 278 275 266 263 266 269 268 267 265 265 272 272 265 278 294 299 317 355 14 5 50 133 147 149 156 178 180 173 174 192 211
218 244 267 263 202 206 225 256 237 245 259 268 284 281 264 253 253 262 263 262 261 262 258 250 246 243 225 239 272 270 337 342 333 306 228 201 180 169 181 170 165 172 181 201
206 233 245 264 139 186 218 259 225 224 245 257 249 258 281 298 260 259 261 255 245 238 229 223 234 218 209 218 220 231 268 303 308 294 254 240 244 222 206 166 164 142 149 266
220 239 261 262 148 169 213 274 154 218 237 231 229 261 315 309 281 266 258 250 220 207 213 226 221 205 214 234 255 276 306 313 296 278 275 247 196 197 202 139 121 122 102 38
203 223 246 154 160 202 251 336 267 251 247 247 253 269 282 287 283 270 251 232 208 204 220 221 210 204 207 232 250 220 169 168 305 357 348 192 154 152 173 155 140 140 123 66
210 228 318 174 205 240 291 275 272 270 269 259 259 263 271 277 277 271 250 235 210 203 217 223 219 216 215 231 210 185 171 173 139 30 14 149 169 174 180 172 171 173 172 201
248 256 254 241 251 264 262 262 271 273 271 259 257 262 266 268 269 266 256 234 207 199 213 227 232 231 230 222 199 189 192 191 171 171 158 156 187 204 198 190 192 202 208 218
247 267 274 251 246 257 260 260 264 266 262 257 255 259 260 262 261 257 252 239 215 211 218 229 225 229 230 217 195 191 195 193 193 195 199 190 206 207 231 246 223 225 234 228
239 241 236 259 270 260 252 252 254 255 258 254 245 247 253 256 255 249 242 232 223 222 221 227 220 223 229 217 200 192 193 203 205 203 207 212 207 160 73 266 350 278 270 255
255 271 261 274 282 271 260 261 260 255 253 255 248 236 239 246 248 244 240 233 228 227 223 221 218 226 231 222 209 203 206 216 215 212 208 211 222 227 237 46 13 324 289 272
246 255 263 262 269 275 271 267 263 259 255 249 244 235 232 236 240 239 241 240 234 230 224 220 220 232 235 219 207 205 207 210 219 222 212 216 224 233 238 235 241 285 298 290
242 243 251 266 273 276 270 258 251 251 248 245 237 232 228 228 233 241 242 233 220 221 225 220 221 234 229 211 205 206 206 204 208 213 206 214 223 226 228 234 248 274 293 305
250 251 248 252 259 265 264 252 245 246 242 240 235 231 230 230 236 243 235 217 210 221 225 222 229 236 217 204 204 208 210 205 208 207 201 207 214 218 219 223 238 251 261 281
234 243 241 247 253 256 255 250 245 245 244 239 237 232 223 220 226 233 236 230 226 230 228 227 237 237 219 207 205 204 201 199 203 209 209 210 214 218 220 223 231 242 254 268
238 246 246 250 253 256 260 254 246 242 241 239 235 226 220 219 226 235 239 231 222 228 235 238 242 233 222 214 209 205 198 200 202 208 210 212 218 222 221 225 233 241 254 254
235 242 246 247 247 249 253 250 244 239 236 224 217 220 223 227 230 235 230 218 218 233 244 237 230 223 220 216 208 206 202 199 202 209 210 214 221 222 221 224 234 244 253 257
231 237 241 244 241 235 237 239 234 231 229 218 215 220 226 229 224 223 220 227 231 237 238 228 221 219 221 216 210 208 204 204 205 206 209 214 218 220 221 227 236 246 253 255
230 234 236 237 239 238 237 234 226 228 228 215 214 221 228 232 224 217 220 239 240 231 232 228 224 220 216 209 209 208 205 206 206 206 208 212 214 218 222 228 235 242 249 256
229 230 234 235 236 246 247 238 229 227 226 224 221 221 224 230 228 228 229 237 243 231 227 223 222 221 216 210 207 204 205 207 206 205 209 212 215 219 222 229 236 243 248 254
235 235 235 234 234 240 247 239 229 224 223 224 222 221 225 230 226 224 241 232 229 233 230 225 227 221 213 208 205 200 203 206 210 211 213 214 217 221 226 230 239 244 250 255
238 240 241 239 227 229 243 247 238 232 229 232 231 228 226 232 239 234 240 235 228 227 226 225 224 217 209 205 200 200 204 209 212 213 215 217 220 224 229 234 241 246 250 256
236 236 232 223 228 237 242 245 242 237 232 235 238 235 229 228 233 236 229 223 224 225 227 220 216 213 210 206 203 205 209 212 211 211 216 218 222 226 230 233 238 244 248 252
236 236 236 234 237 241 238 233 236 236 233 240 244 238 231 227 227 228 223 220 219 220 220 215 210 210 209 208 208 209 211 215 222 225 227 227 228 230 233 236 241 244 248 252
235 237 237 241 239 232 230 230 232 234 230 232 243 239 228 222 218 218 218 218 216 216 214 210 206 205 203 205 208 209 212 214 216 220 223 228 231 233 235 238 243 246 248 251